• In Hungary
  • List of Countries
  • For 7 days
  • Water Temperature
  • Satellite Maps
  • Weather Map
  • News
  • Weather Widgets
  • user-avatar
    Login

    Hourly Weather Horoshovo

    Today, 18 June, Monday

    Time Temperature Precipitation Wind Pressure Humidity
    00:00 +15°C° 0 mm 2 mps 740 mmHg 87%
    01:00 +14°C° 0 mm 1 mps 740 mmHg 89%
    02:00 +14°C° 0 mm 1 mps 740 mmHg 91%
    03:00 +15°C° 0 mm 1 mps 740 mmHg 89%
    04:00 +15°C° 0 mm 1 mps 740 mmHg 87%
    05:00 +16°C° 0 mm 2 mps 740 mmHg 85%
    06:00 +18°C° 0 mm 2 mps 740 mmHg 78%
    07:00 +20°C° 0 mm 2 mps 740 mmHg 71%
    08:00 +23°C° 0 mm 2 mps 741 mmHg 63%
    09:00 +24°C° 0 mm 2 mps 740 mmHg 59%
    10:00 +25°C° 0 mm 3 mps 740 mmHg 55%
    11:00 +26°C° 0 mm 3 mps 740 mmHg 51%
    12:00 +26°C° 0.1 mm 3 mps 740 mmHg 52%
    13:00 +26°C° 0.1 mm 3 mps 740 mmHg 53%
    14:00 +26°C° 0.1 mm 3 mps 739 mmHg 54%
    15:00 +26°C° 0.4 mm 3 mps 739 mmHg 60%
    16:00 +25°C° 0.4 mm 2 mps 739 mmHg 67%
    17:00 +25°C° 0.4 mm 2 mps 739 mmHg 73%
    18:00 +23°C° 0.3 mm 2 mps 738 mmHg 79%
    19:00 +20°C° 0.3 mm 2 mps 738 mmHg 84%
    20:00 +20°C° 0.3 mm 1 mps 738 mmHg 90%
    21:00 +19°C° 0 mm 1 mps 738 mmHg 91%
    22:00 +18°C° 0 mm 1 mps 738 mmHg 93%
    23:00 +16°C° 0 mm 1 mps 738 mmHg 95%

    Tomorrow, 19 June, Tuesday

    Time Temperature Precipitation Wind Pressure Humidity
    00:00 +16°C° 0.1 mm 1 mps 738 mmHg 95%
    01:00 +16°C° 0.1 mm 1 mps 737 mmHg 96%
    02:00 +15°C° 0.1 mm 1 mps 737 mmHg 97%
    03:00 +16°C° 0 mm 2 mps 737 mmHg 96%
    04:00 +16°C° 0 mm 2 mps 737 mmHg 96%
    05:00 +17°C° 0 mm 2 mps 737 mmHg 95%
    06:00 +18°C° 0.1 mm 2 mps 737 mmHg 89%
    07:00 +20°C° 0.1 mm 2 mps 737 mmHg 83%
    08:00 +21°C° 0.1 mm 2 mps 737 mmHg 77%
    09:00 +22°C° 0.3 mm 3 mps 737 mmHg 71%
    10:00 +24°C° 0.3 mm 3 mps 737 mmHg 66%
    11:00 +25°C° 0.3 mm 4 mps 737 mmHg 60%
    12:00 +25°C° 0.4 mm 4 mps 736 mmHg 61%
    13:00 +25°C° 0.4 mm 4 mps 736 mmHg 61%
    14:00 +25°C° 0.4 mm 4 mps 736 mmHg 62%
    15:00 +25°C° 0.2 mm 4 mps 736 mmHg 61%
    16:00 +25°C° 0.2 mm 4 mps 736 mmHg 61%
    17:00 +25°C° 0.2 mm 3 mps 735 mmHg 60%
    18:00 +22°C° 0 mm 3 mps 735 mmHg 64%
    19:00 +20°C° 0 mm 3 mps 735 mmHg 67%
    20:00 +18°C° 0 mm 3 mps 735 mmHg 71%
    21:00 +18°C° 0 mm 3 mps 735 mmHg 73%
    22:00 +17°C° 0 mm 3 mps 735 mmHg 76%
    23:00 +16°C° 0 mm 3 mps 735 mmHg 78%

    Day after tomorrow, 20 June, Wednesday

    Time Temperature Precipitation Wind Pressure Humidity
    00:00 +16°C° 0.1 mm 3 mps 735 mmHg 82%
    01:00 +16°C° 0.1 mm 3 mps 736 mmHg 86%
    02:00 +14°C° 0.1 mm 3 mps 736 mmHg 90%
    03:00 +14°C° 0 mm 3 mps 736 mmHg 89%
    04:00 +14°C° 0 mm 3 mps 736 mmHg 89%
    05:00 +13°C° 0 mm 3 mps 737 mmHg 89%
    06:00 +14°C° 0 mm 4 mps 737 mmHg 82%
    07:00 +15°C° 0 mm 4 mps 737 mmHg 76%
    08:00 +15°C° 0 mm 4 mps 738 mmHg 69%
    09:00 +18°C° 0 mm 4 mps 738 mmHg 60%
    10:00 +19°C° 0 mm 4 mps 738 mmHg 52%
    11:00 +21°C° 0 mm 4 mps 738 mmHg 43%
    12:00 +21°C° 0 mm 4 mps 738 mmHg 42%
    13:00 +22°C° 0 mm 5 mps 737 mmHg 40%
    14:00 +23°C° 0 mm 5 mps 737 mmHg 39%
    15:00 +22°C° 0 mm 5 mps 737 mmHg 42%
    16:00 +22°C° 0 mm 5 mps 737 mmHg 44%
    17:00 +22°C° 0 mm 4 mps 737 mmHg 47%
    18:00 +20°C° 0 mm 4 mps 737 mmHg 54%
    19:00 +19°C° 0 mm 3 mps 737 mmHg 62%
    20:00 +17°C° 0 mm 3 mps 737 mmHg 69%
    21:00 +16°C° 0 mm 2 mps 737 mmHg 71%
    22:00 +15°C° 0 mm 2 mps 738 mmHg 74%
    23:00 +14°C° 0 mm 2 mps 738 mmHg 76%

    21 June, Thursday

    Time Temperature Precipitation Wind Pressure Humidity
    00:00 +13°C° 0 mm 2 mps 738 mmHg 78%
    01:00 +12°C° 0 mm 2 mps 738 mmHg 79%
    02:00 +12°C° 0 mm 2 mps 738 mmHg 81%
    03:00 +12°C° 0 mm 2 mps 738 mmHg 78%
    04:00 +13°C° 0 mm 2 mps 738 mmHg 76%
    05:00 +13°C° 0 mm 2 mps 738 mmHg 74%
    06:00 +14°C° 0 mm 3 mps 738 mmHg 69%
    07:00 +16°C° 0 mm 3 mps 739 mmHg 64%
    08:00 +18°C° 0 mm 3 mps 739 mmHg 59%
    09:00 +19°C° 0 mm 3 mps 739 mmHg 57%
    10:00 +20°C° 0 mm 3 mps 738 mmHg 55%
    11:00 +22°C° 0 mm 4 mps 738 mmHg 52%
    12:00 +22°C° 0 mm 3 mps 738 mmHg 55%
    13:00 +22°C° 0 mm 3 mps 738 mmHg 57%
    14:00 +22°C° 0 mm 3 mps 738 mmHg 59%
    15:00 +22°C° 0 mm 3 mps 738 mmHg 61%
    16:00 +24°C° 0 mm 3 mps 737 mmHg 62%
    17:00 +24°C° 0 mm 2 mps 737 mmHg 63%
    18:00 +23°C° 0 mm 2 mps 737 mmHg 70%
    19:00 +21°C° 0 mm 1 mps 737 mmHg 76%
    20:00 +20°C° 0 mm 1 mps 737 mmHg 82%
    21:00 +19°C° 0 mm 1 mps 737 mmHg 85%
    22:00 +17°C° 0 mm 2 mps 737 mmHg 88%
    23:00 +16°C° 0 mm 2 mps 737 mmHg 91%

    22 June, Friday

    Time Temperature Precipitation Wind Pressure Humidity
    00:00 +16°C° 0 mm 2 mps 736 mmHg 93%
    01:00 +15°C° 0 mm 2 mps 736 mmHg 95%
    02:00 +15°C° 0 mm 2 mps 736 mmHg 96%
    03:00 +16°C° 0 mm 3 mps 736 mmHg 93%
    04:00 +16°C° 0 mm 3 mps 735 mmHg 90%
    05:00 +17°C° 0 mm 3 mps 735 mmHg 87%
    06:00 +19°C° 0 mm 4 mps 735 mmHg 80%
    07:00 +20°C° 0 mm 5 mps 734 mmHg 72%
    08:00 +22°C° 0 mm 5 mps 734 mmHg 64%
    09:00 +23°C° 0 mm 6 mps 734 mmHg 61%
    10:00 +26°C° 0 mm 6 mps 733 mmHg 57%
    11:00 +27°C° 0 mm 6 mps 733 mmHg 53%
    12:00 +28°C° 0 mm 6 mps 733 mmHg 53%
    13:00 +28°C° 0 mm 6 mps 732 mmHg 52%
    14:00 +28°C° 0 mm 6 mps 732 mmHg 52%
    15:00 +27°C° 0.3 mm 6 mps 732 mmHg 59%
    16:00 +27°C° 0.3 mm 5 mps 732 mmHg 66%
    17:00 +26°C° 0.3 mm 4 mps 731 mmHg 73%
    18:00 +23°C° 0.4 mm 4 mps 731 mmHg 78%
    19:00 +22°C° 0.4 mm 3 mps 731 mmHg 84%
    20:00 +20°C° 0.4 mm 3 mps 731 mmHg 89%
    21:00 +20°C° 0.2 mm 3 mps 731 mmHg 91%
    22:00 +19°C° 0.2 mm 2 mps 731 mmHg 94%
    23:00 +19°C° 0.2 mm 2 mps 731 mmHg 96%

    23 June, Saturday

    Time Temperature Precipitation Wind Pressure Humidity
    00:00 +18°C° 0.6 mm 2 mps 731 mmHg 96%
    01:00 +18°C° 0.6 mm 2 mps 731 mmHg 97%
    02:00 +17°C° 0.6 mm 3 mps 731 mmHg 97%
    03:00 +17°C° 0.3 mm 3 mps 731 mmHg 97%
    04:00 +16°C° 0.3 mm 3 mps 731 mmHg 96%
    05:00 +14°C° 0.3 mm 3 mps 731 mmHg 96%
    06:00 +14°C° 0.5 mm 3 mps 731 mmHg 96%
    07:00 +13°C° 0.5 mm 3 mps 731 mmHg 96%
    08:00 +13°C° 0.5 mm 3 mps 731 mmHg 96%
    09:00 +12°C° 0.3 mm 3 mps 732 mmHg 96%
    10:00 +12°C° 0.3 mm 3 mps 732 mmHg 95%
    11:00 +12°C° 0.3 mm 3 mps 732 mmHg 95%
    12:00 +12°C° 0.3 mm 3 mps 732 mmHg 94%
    13:00 +12°C° 0.3 mm 3 mps 732 mmHg 93%
    14:00 +12°C° 0.3 mm 3 mps 732 mmHg 93%
    15:00 +11°C° 0.5 mm 3 mps 733 mmHg 94%
    16:00 +11°C° 0.5 mm 3 mps 733 mmHg 95%
    17:00 +12°C° 0.5 mm 2 mps 733 mmHg 96%
    18:00 +10°C° 0.1 mm 2 mps 733 mmHg 96%
    19:00 +10°C° 0.1 mm 2 mps 733 mmHg 97%
    20:00 +11°C° 0.1 mm 1 mps 733 mmHg 97%
    21:00 +11°C° 0 mm 1 mps 733 mmHg 97%
    22:00 +10°C° 0 mm 1 mps 734 mmHg 98%
    23:00 +10°C° 0 mm 1 mps 734 mmHg 98%
    Show more